Caribou, ME

1:51 PM EDT on September 20, 2017 (GMT -0400)
Caribou Municipal

Weather History for KCAR - October, 2011

Change the Weather History Date:

Friday, October 21, 2011

  Actual Average Record
Temperature  
Mean Temperature 48 °F 42 °F  
Max Temperature 54 °F 50 °F 72 °F (1979)
Min Temperature 42 °F 33 °F 15 °F (1972)
Degree Days  
Heating Degree Days 17 24  
Month to date heating degree days 309 417  
Since 1 July heating degree days 557 884  
Cooling Degree Days 0 0  
Month to date cooling degree days 5 0  
Year to date cooling degree days 175 180  
Moisture  
Dew Point 46 °F    
Average Humidity 84    
Maximum Humidity 96    
Minimum Humidity 71    
Precipitation  
Precipitation T in 0.12 in 2.00 in (1964)
Month to date precipitation 3.50 2.38  
Year to date precipitation 49.84 30.44  
Snow  
Snow 0.00 in 0.00 in 3.80 in (2003)
Month to date snowfall T 0.6  
Since 1 July snowfall T 0.7  
Since 1 September snowfall T 0.7  
Snow Depth 0.00 in    
Sea Level Pressure  
Sea Level Pressure 29.66 in    
Wind  
Wind Speed 7 mph (SW)    
Max Wind Speed 17 mph    
Max Gust Speed 24 mph    
Visibility 10 miles    
Events Rain    
T = Trace of Precipitation, MM = Missing Value Source: NWS Daily Summary

Daily Weather History Graph

Daily Weather History Graph

Search for Another Location

Airport or City:

Trip Planner

Search our weather history database for the weather conditions in past years. The results will help you decide how hot, cold, wet, or windy it might be!

Date:

Astronomy

Oct. 21, 2011 Rise Set
Actual Time 6:58 AM EDT 5:34 PM EDT
Civil Twilight 6:27 AM EDT 6:05 PM EDT
Nautical Twilight 5:51 AM EDT 6:40 PM EDT
Astronomical Twilight 5:16 AM EDT 7:15 PM EDT
Moon 12:21 AM EDT (10/21) 2:37 PM EDT (10/21)
Length of Visible Light 11h 38m
Length of Day
10h 36m
Waning Crescent, 34% of the Moon is Illuminated
Oct 21
Waning Crescent
Oct 26
New
Nov 2
First Quarter
Nov 10
Full
Nov 18
Last Quarter

Hourly Weather History & Observations

Time (EDT) Temp. Windchill Dew Point Humidity Pressure Visibility Wind Dir Wind Speed Gust Speed Precip Events Conditions
12:54 AM 54.0 °F - 51.1 °F 90% 29.53 in 10.0 mi South 9.2 mph 18.4 mph N/A   Scattered Clouds
1:54 AM 53.1 °F - 50.0 °F 89% 29.54 in 10.0 mi South 5.8 mph - N/A   Scattered Clouds
2:54 AM 53.1 °F - 50.0 °F 89% 29.55 in 10.0 mi South 9.2 mph - N/A   Overcast
3:06 AM 53.6 °F - 50.0 °F 88% 29.53 in 10.0 mi SSW 8.1 mph - N/A   Overcast
3:24 AM 53.6 °F - 50.0 °F 88% 29.54 in 9.0 mi SSW 8.1 mph - N/A   Overcast
3:51 AM 51.8 °F - 50.0 °F 94% 29.54 in 10.0 mi SW 6.9 mph - 0.00 in   Overcast
3:54 AM 52.0 °F - 50.0 °F 93% 29.56 in 10.0 mi SSW 5.8 mph - 0.00 in   Mostly Cloudy
4:54 AM 52.0 °F - 48.9 °F 89% 29.57 in 10.0 mi SSW 6.9 mph - N/A   Overcast
5:54 AM 51.1 °F - 48.9 °F 92% 29.59 in 10.0 mi SW 6.9 mph - N/A   Overcast
6:54 AM 51.1 °F - 48.0 °F 89% 29.61 in 10.0 mi SW 6.9 mph - 0.00 in Rain Light Rain
7:54 AM 50.0 °F - 48.0 °F 93% 29.63 in 10.0 mi SSW 6.9 mph - 0.00 in   Overcast
8:54 AM 51.1 °F - 48.0 °F 89% 29.65 in 10.0 mi SW 6.9 mph - 0.00 in   Overcast
9:54 AM 51.1 °F - 46.9 °F 86% 29.66 in 10.0 mi SW 8.1 mph - N/A   Overcast
10:54 AM 50.0 °F - 46.0 °F 86% 29.67 in 10.0 mi WSW 8.1 mph - 0.00 in   Overcast
11:17 AM 50.0 °F - 44.6 °F 82% 29.66 in 9.0 mi WSW 6.9 mph 16.1 mph 0.00 in Rain Light Rain
11:44 AM 50.0 °F - 44.6 °F 82% 29.66 in 10.0 mi WSW 4.6 mph - 0.00 in   Overcast
11:54 AM 50.0 °F - 45.0 °F 83% 29.68 in 10.0 mi SW 4.6 mph - 0.00 in   Overcast
12:54 PM 51.1 °F - 45.0 °F 80% 29.67 in 10.0 mi SW 6.9 mph - N/A   Overcast
1:54 PM 51.1 °F - 45.0 °F 80% 29.68 in 10.0 mi SW 5.8 mph - N/A   Overcast
2:54 PM 54.0 °F - 44.1 °F 69% 29.68 in 10.0 mi SSW 9.2 mph - N/A   Overcast
3:54 PM 52.0 °F - 44.1 °F 74% 29.70 in 10.0 mi SW 8.1 mph - N/A   Overcast
4:54 PM 51.1 °F - 46.0 °F 83% 29.72 in 10.0 mi WSW 5.8 mph - 0.00 in   Mostly Cloudy
5:54 PM 48.9 °F - 43.0 °F 80% 29.75 in 10.0 mi WSW 8.1 mph - N/A   Mostly Cloudy
6:54 PM 48.0 °F - 43.0 °F 83% 29.77 in 10.0 mi SSW 5.8 mph - N/A   Overcast
7:54 PM 48.9 °F - 43.0 °F 80% 29.78 in 10.0 mi SW 9.2 mph - N/A   Overcast
8:54 PM 46.9 °F - 43.0 °F 86% 29.81 in 10.0 mi SW 4.6 mph - N/A   Clear
9:54 PM 46.0 °F - 43.0 °F 89% 29.82 in 10.0 mi Calm Calm - N/A   Clear
10:54 PM 44.1 °F 40.8 °F 41.0 °F 89% 29.82 in 10.0 mi WSW 5.8 mph - N/A   Clear
11:54 PM 44.1 °F 40.8 °F 42.1 °F 93% 29.83 in 10.0 mi SW 5.8 mph - N/A   Clear